{"data":{"norad_id":63313,"intl_designator":"2025-057G","name":"STARLINK-11648 [DTC]","alt_names":[],"object_type":"PAYLOAD","status":"ACTIVE","operator":null,"country":"US","launch_date":"2025-03-18","launch_site_code":"AFETR","launch_vehicle":null,"mission":null,"orbit_class":"UNKNOWN","rcs_meters":null,"size_class":null,"mass_kg":null,"dimensions":null,"purposes":["comms"],"wikipedia_slug":null,"has_3d_model":false,"image_url":null,"decayed_at":null,"tle_current":{"epoch":"2026-05-25T02:31:38.097120Z","epoch_age_seconds":56215,"freshness":"FRESH","line1":"1 63313U 25057G   26145.10530205  .00154771  00000+0  11856-2 0  9996","line2":"2 63313  43.0055 164.1142 0001872 226.7247 133.3465 15.70875108 69194","mean_motion":15.70875108,"eccentricity":0.0001872,"inclination_deg":43.0055,"raan_deg":164.1142,"arg_perigee_deg":226.7247,"mean_anomaly_deg":133.3465,"bstar":0.0011856,"rev_number":6919,"period_min":91.668649701463,"perigee_km":355.13401386522,"apogee_km":357.65542254052,"semimajor_km":6734.5317182029,"source":"CELESTRAK","updated_at":"2026-05-25T13:38:19.956987Z"}}}